Home > Weather > Nijmegen > Past weeks

Flag for Netherlands Past Weather in Nijmegen, Netherlands — Yesterday and Last 2 Weeks

Now
70 °F

More clouds than sun.


Feels Like: 70 °F
Forecast: 59 / 70 °F
Wind: 9 mph from West

Location: Volkel

Current Time: Jul 28, 2016 at 2:31:58 PM

Latest Report: Jul 28, 2016 at 1:55 PM


Visibility: N/A

Pressure: 29.95 "Hg

Humidity: 78%

Dew Point: 63 °F

Location of NijmegenLocation

Past Weather in Nijmegen — Graph

°F

Nijmegen Temperature Yesterday

Maximum temperature yesterday: 72 °F (at 12:25 PM)
Minimum temperature yesterday: 59 °F (at 6:25 AM)
Average temperature yesterday: 66 °F

High & Low Weather Summary for the Past Weeks

 TemperatureHumidityPressure
High95 °F (Jul 20, 4:55 PM)100% (Jul 14, 3:55 AM)30.27 "Hg (Jul 14, 3:55 AM)
Low46 °F (Jul 14, 5:25 AM)30% (Jul 20, 4:55 PM)29.83 "Hg (Jul 20, 2:58 PM)
Average68 °F77%30.08 "Hg
* Reported Jul 13 1:25 PM — Jul 28 1:25 PM, Nijmegen, Weather by CustomWeather, © 2016

Note: Actual official high and low records may vary slightly from our data, if they occured in-between our weather recording intervals... More about our weather records

Advertising

Nijmegen Weather History for the Previous 24 Hours

Scroll right to see more
 ConditionsComfort  
Time TempWeatherWind HumidityBarometerVisibility
1:25 PM
Thu, Jul 28
70 °FBroken clouds.10 mph78%29.95 "HgN/A
12:55 PM68 °FOvercast.8 mph83%29.95 "HgN/A
12:25 PM64 °FLight rain. Mostly cloudy.8 mph94%29.95 "Hg2 mi
12:01 PM64 °FLight rain. Broken clouds.10 mph94%29.95 "Hg2 mi
11:55 AM66 °FRain. Broken clouds.7 mph88%29.95 "HgN/A
11:25 AM64 °FMore clouds than sun.5 mph100%29.95 "HgN/A
11:04 AM63 °FDrizzle. Cloudy.6 mph100%29.98 "Hg2 mi
10:55 AM63 °FDrizzle. Broken clouds.8 mph100%29.95 "Hg2 mi
10:25 AM64 °FDrizzle. Broken clouds.7 mph94%29.95 "Hg2 mi
10:01 AM64 °FLight rain. More clouds than sun.7 mph94%29.95 "Hg2 mi
9:55 AM64 °FDrizzle. Broken clouds.6 mph94%29.95 "Hg5 mi
9:25 AM66 °FBroken clouds.6 mph88%29.95 "HgN/A
8:55 AM66 °FFog.6 mph94%29.95 "Hg5 mi
8:25 AM64 °FFog.5 mph94%29.95 "Hg4 mi
7:55 AM64 °FFog.5 mph94%29.98 "Hg3 mi
7:25 AM64 °FFog.3 mph94%29.98 "Hg3 mi
7:04 AM64 °FDrizzle. Broken clouds.5 mph94%29.98 "Hg2 mi
6:55 AM64 °FLight rain. Broken clouds.3 mph94%29.98 "Hg2 mi
6:25 AM63 °FFog.5 mph100%29.98 "Hg3 mi
6:01 AM63 °FFog.5 mph100%29.98 "Hg3 mi
5:55 AM63 °FFog.3 mph100%29.98 "Hg3 mi
5:25 AM63 °FFog.3 mph100%29.98 "Hg4 mi
4:59 AM63 °FDrizzle. Overcast.3 mph100%29.98 "Hg2 mi
4:55 AM63 °FLight rain. Mostly cloudy.3 mph100%29.98 "Hg3 mi
4:25 AM63 °FLight rain. Mostly cloudy.6 mph100%29.98 "Hg4 mi
4:02 AM64 °FPassing clouds.5 mph94%29.98 "Hg5 mi
3:55 AM64 °FDrizzle. Overcast.5 mph94%29.98 "Hg6 mi
3:25 AM63 °FOvercast.2 mph94%29.98 "HgN/A
2:55 AM64 °FMostly cloudy.2 mph88%30.01 "HgN/A
2:25 AM64 °FOvercast.2 mph88%30.01 "HgN/A
1:55 AM64 °FOvercast.3 mph88%30.01 "HgN/A
1:25 AM64 °FMostly cloudy.3 mph88%30.01 "HgN/A
12:55 AM64 °FOvercast.3 mph88%30.01 "HgN/A
12:25 AM64 °FFog.3 mph88%30.01 "Hg1 mi
12:03 AM64 °FFog.5 mph88%30.01 "Hg2 mi
11:55 PM
Wed, Jul 27
64 °FFog.5 mph88%30.01 "Hg2 mi
11:25 PM63 °FPassing clouds.6 mph94%30.01 "HgN/A
10:55 PM63 °FOvercast.7 mph94%30.01 "HgN/A
10:25 PM64 °FOvercast.6 mph88%30.01 "HgN/A
9:59 PM66 °FMostly cloudy.8 mph83%30.01 "HgN/A
9:55 PM66 °FMore clouds than sun.8 mph83%30.01 "HgN/A
9:25 PM66 °FMostly cloudy.9 mph83%30.01 "HgN/A
9:03 PM66 °FMore clouds than sun.12 mph83%30.01 "HgN/A
8:55 PM66 °FMostly cloudy.10 mph83%30.01 "HgN/A
8:25 PM66 °FMore clouds than sun.6 mph83%30.01 "HgN/A
7:55 PM66 °FMore clouds than sun.8 mph83%29.98 "HgN/A
7:25 PM66 °FCloudy.12 mph78%29.98 "HgN/A
6:55 PM68 °FMostly cloudy.8 mph78%29.98 "HgN/A
6:25 PM68 °FSprinkles. Mostly cloudy.13 mph78%29.98 "HgN/A
5:55 PM70 °FOvercast.14 mph69%29.98 "HgN/A
5:25 PM70 °FOvercast.12 mph69%29.98 "HgN/A
4:55 PM70 °FBroken clouds.12 mph69%29.98 "HgN/A
4:25 PM72 °FBroken clouds.13 mph65%29.98 "HgN/A
3:55 PM72 °FOvercast.13 mph65%30.01 "HgN/A
3:25 PM68 °FMore clouds than sun.14 mph69%30.01 "HgN/A
2:55 PM70 °FMostly cloudy.15 mph69%30.01 "HgN/A
2:25 PM72 °FBroken clouds.13 mph61%30.01 "HgN/A
Weather by CustomWeather, © 2016

See weather overviewHow to use our weather pages